SCP
0 0 0 0 0 0 0 0 0 0 0 0 0 0 0 0 0 0 0 0 0 0 0 0 0 0 0 0 0 0 0 0 0 0 0 0 0 0 0 0 0 0 0
0 0 0 0 0 0 0 0 0 0 0 0 0 0 0 0 0 0 0 0 0 0 0 0 0 0 0 0 0 0 0 0 0 0 0 0 0 0 0 0 0 0 0
0 0 0 0 0 0 0 0 0 0 0 0 0 0 0 0 0 0 0 0 0 0 0 0 0 0 0 0 0 0 0 0 0 0 0 0 0 0 0 0 0 0 0
0 0 0 0 0 0 0 0 0 0 0 0 0 0 0 0 0 0 0 0 0 0 0 0 0 0 0 0 0 0 0 0 0 0 0 0 0 0 -0 0 -0 -0 -0
0 0 0 0 0 0 0 0 0 0 0 0 0 0 0 0 0 0 0 0 0 0 0 0 0 0 0 0 0 0 0 0 0 0 0 0 0 0 0 -0 -0 -0 -0
0 0 0 0 0 0 0 0 0 0 0 0 0 0 0 0 0 0 0 0 0 0 0 0 0 0 0 0 0 0 0 0 0 0 0 0 0 -0 -0 -0 -0 -0 -0
0 0 0 0 0 0 0 0 0 0 0 0 0 0 0 0 0 0 0 0 0 0 0 0 0 0 0 0 0 0 0 0 0 0 0 0 -0 -0 0 0 0 0 0
0 0 0 0 0 0 0 0 0 0 0 0 0 0 0 0 0 0 0 0 0 0 0 0 0 0 0 0 0 0 0 0 0 0 0 0 0 0 0 0 0 0 0
0 0 0 0 0 0 0 0 0 0 0 0 0 0 0 0 0 0 0 0 0 0 0 0 0 0 0 0 0 0 0 0 0 0 0 0 0 0 0 0 0 0 0
0 0 0 0 0 0 0 0 0 0 0 0 0 0 0 0 0 0 0 0 0 0 0 0 0 0 0 0 0 0 0 0 0 0 0 0 0 0 0 0 0 0 0
0 0 0 0 0 0 0 0 0 0 0 0 0 0 0 0 0 0 0 0 0 0 0 0 0 0 0 0 0 0 0 0 0 0 0 0 0 0 0 0 0 0 0
0 0 0 0 0 0 0 0 0 0 0 0 0 0 0 0 0 0 0 0 0 0 0 0 0 0 0 0 0 0 0 0 0 0 0 0 0 0 0 0 0 0 0
0 0 0 0 0 0 0 0 0 0 0 0 0 0 0 0 0 0 0 0 0 0 0 0 0 0 0 0 0 0 0 0 0 0 0 0 0 0 0 0 0 0 0
0 0 0 0 0 0 0 0 0 0 0 0 0 0 0 0 0 0 0 0 0 0 0 0 0 0 0 0 0 0 0 0 0 0 0 0 0 0 0 0 0 0 0
0 0 0 0 0 0 0 0 0 0 0 0 0 0 0 0 0 0 0 0 0 0 0 0 0 0 0 0 0 0 0 0 0 0 0 0 0 0 0 0 0 0 0
0 0 0 0 0 0 0 0 0 0 0 0 0 0 0 0 0 0 0 0 0 0 0 0 0 0 0 0 0 0 0 0 0 0 0 0 0 0 0 0 0 0 0
0 0 0 0 0 0 0 0 0 0 0 0 0 0 0 0 0 0 0 0 0 0 0 0 0 0 0 0 0 0 0 0 0 0 0 0 0 0 0 0 0 0 0
0 0 0 0 0 0 0 0 0 0 0 0 0 0 0 0 0 0 0 0 0 0 0 0 0 0 0 0 0 0 0 0 0 0 0 0 0 0 0 0 0 0 0
0 0 0 0 0 0 0 0 0 0 0 0 0 0 0 0 0 0 0 0 0 0 0 0 0 0 0 0 0 0 0 0 0 0 0 0 0 0 0 0 0 0 0
0 0 0 0 0 0 0 0 0 0 0 0 0 0 0 0 0 0 0 0 0 0 0 0 0 0 0 0 0 0 0 0 0 0 0 0 0 0 0 0 0 0 0
0 0 0 0 0 0 0 0 0 0 0 0 0 0 0 0 0 0 0 0 0 0 0 0 0 0 0 0 0 0 0 0 0 0 0 0 0 0 0 0 0 0 0
0 0 0 0 0 0 0 0 0 0 0 0 0 0 0 0 0 0 0 0 0 0 0 0 0 0 0 0 0 0 0 0 0 0 0 0 0 0 0 0 0 0 0
0 0 0 0 0 0 0 0 0 0 0 0 0 0 0 0 0 0 0 0 0 0 0 0 0 0 0 0 0 0 0 0 0 0 0 0 0 0 0 0 0 0 0
0 0 0 0 0 0 0 0 0 0 0 0 0 0 0 0 0 0 0 0 0 0 0 0 0 0 0 0 0 0 0 0 0 0 0 0 0 0 0 0 0 0 0
0 0 0 0 0 0 0 0 0 0 0 0 0 0 0 0 0 0 0 0 0 0 0 0 0 0 0 0 0 0 0 0 0 0 0 0 0 0 0 0 0 0 0
0 0 0 0 0 0 0 0 0 0 0 0 0 0 0 0 0 0 0 0 0 0 0 0 0 0 0 0 0 0 0 0 0 0 0 0 0 0 0 0 0 0 0
Wind_Speed_500mb
15 16 18 21 22 23 24 24 26 29 27 22 25 33 38 40 34 35 38 41 40 37 42 36 36 36 32 25 25 27 32 29 31 33 35 39 40 44 42 44 48 52 54
13 14 15 16 17 19 19 16 14 9 9 15 21 28 33 35 35 37 33 24 28 22 32 34 28 24 25 26 23 20 21 24 30 36 42 46 47 49 50 51 50 49 52
9 11 11 11 12 12 9 7 7 9 13 16 21 26 29 30 37 31 24 28 29 27 25 22 20 20 18 16 15 15 19 25 30 35 41 45 47 50 55 59 60 61 58
10 11 10 8 8 10 10 11 12 14 17 20 20 21 24 23 19 22 28 28 24 21 19 16 12 8 6 8 12 18 23 26 31 36 40 44 48 52 57 64 71 71 73
15 12 11 12 12 12 12 14 15 13 14 15 17 18 22 24 23 22 21 19 17 13 11 7 2 3 7 14 18 20 23 30 35 36 38 43 49 57 65 69 70 73 77
18 17 16 15 14 13 13 11 11 11 14 16 18 19 21 21 22 18 11 10 9 5 3 4 4 10 14 18 21 26 28 31 34 37 40 45 50 54 58 63 68 76 75
21 19 16 16 16 13 12 12 14 16 17 18 19 21 22 19 18 15 12 9 8 6 3 6 11 22 30 27 29 30 28 28 29 29 36 41 48 49 57 61 64 65 70
22 19 17 16 17 16 14 13 15 19 23 23 21 19 17 15 13 12 13 12 5 2 8 18 23 25 25 23 21 18 18 17 20 29 34 37 41 46 49 54 62 68 70
20 17 17 18 17 17 17 16 17 19 21 22 21 18 15 15 16 15 11 8 1 20 19 24 24 41 24 18 17 16 15 24 29 32 34 37 38 41 47 55 59 67 76
16 17 18 17 16 15 15 16 19 21 23 23 22 23 21 20 19 15 9 15 22 22 23 28 22 20 17 15 18 23 24 28 34 37 38 38 40 42 44 48 53 59 62
13 14 13 12 14 15 17 20 23 25 27 26 25 24 25 22 22 15 14 21 24 25 25 20 19 16 15 20 22 24 29 35 36 39 40 41 41 42 42 42 43 48 53
11 12 13 15 18 19 22 24 27 29 30 30 28 29 28 29 24 21 28 35 34 24 23 22 18 16 19 19 21 27 31 33 34 38 39 41 45 47 46 43 41 39 39
11 14 17 20 22 24 26 28 30 34 34 33 33 33 35 31 28 29 34 39 26 23 23 22 20 20 22 20 23 28 32 32 34 36 39 41 44 45 47 47 45 44 38
14 18 21 24 25 28 29 32 34 37 40 39 41 41 38 33 36 39 39 31 27 27 27 24 22 20 17 18 22 25 28 31 35 37 39 40 40 40 45 50 53 53 51
22 24 27 30 31 32 33 35 38 40 40 40 41 41 40 41 40 39 37 28 29 30 30 27 23 18 13 15 18 21 26 28 29 32 34 36 39 40 42 46 48 50 51
28 30 32 32 34 36 38 42 46 49 51 51 50 47 44 45 48 47 38 34 36 37 36 30 25 18 16 16 17 19 21 24 27 30 33 36 38 41 42 42 44 46 48
31 32 35 38 40 42 46 49 52 54 57 57 55 50 49 50 48 47 42 42 41 39 35 31 27 22 19 18 16 18 22 24 26 29 32 34 35 37 39 40 42 43 43
35 37 42 44 45 47 51 54 55 60 63 58 57 55 55 53 49 51 45 46 44 42 37 34 30 26 22 18 18 19 22 24 24 26 28 31 32 34 35 36 39 43 45
36 40 43 46 49 52 55 58 62 66 65 59 60 60 54 53 51 50 47 46 41 43 41 37 33 29 26 22 20 21 22 24 23 24 26 28 31 32 35 37 38 40 43
42 44 46 50 53 59 63 66 68 70 70 69 74 69 65 55 56 54 53 43 47 47 45 42 39 35 31 26 24 23 23 25 27 26 27 30 34 37 39 39 39 42 42
49 50 52 54 59 64 66 69 72 75 77 81 81 72 73 62 63 61 61 56 52 49 49 46 45 42 37 32 29 25 25 27 30 31 30 32 36 37 39 39 39 40 43
52 52 54 58 61 67 70 73 78 80 82 86 83 79 74 73 73 71 68 64 59 55 52 52 51 48 44 38 34 30 29 29 33 35 34 35 36 38 39 37 38 40 41
53 57 58 60 63 68 73 78 81 84 86 89 87 85 82 84 76 70 66 61 59 58 59 59 57 53 47 43 40 36 34 32 35 37 37 37 38 38 40 39 40 41 41
53 56 61 64 66 70 74 79 82 85 86 89 88 88 85 83 76 67 62 61 63 61 63 62 60 54 50 49 46 42 39 36 37 39 40 39 40 40 41 40 40 41 42
54 57 60 63 67 71 74 77 80 84 86 87 88 89 88 86 80 73 69 68 66 67 68 66 61 58 55 51 48 46 43 40 39 41 43 43 43 42 41 41 40 41 41
55 58 61 62 65 68 72 75 78 80 84 85 84 86 87 86 80 76 70 69 69 67 68 64 62 61 57 53 50 48 45 43 43 44 45 45 45 44 43 41 41 42 41
Wind_Direction_500mb
224 232 239 247 253 256 258 255 250 246 244 242 238 247 256 257 254 271 270 275 264 260 272 273 268 273 274 255 268 274 282 285 290 305 314 317 319 315 316 317 320 321 323
235 242 250 261 269 275 272 270 268 269 251 248 250 257 253 260 260 268 266 268 262 257 263 263 253 248 257 269 275 278 288 303 315 320 324 324 330 329 333 329 331 329 330
233 242 243 243 252 260 248 242 249 253 259 257 258 262 263 267 263 257 254 263 264 265 258 247 262 266 269 277 281 296 317 321 321 324 325 330 334 335 334 333 335 334 336
243 245 252 257 262 262 246 231 231 245 243 259 255 256 262 244 218 260 267 267 250 246 252 256 261 266 292 335 340 330 324 324 328 330 332 333 337 337 335 337 341 342 339
244 249 246 243 243 251 243 225 231 233 239 242 254 253 250 266 271 260 256 252 246 236 231 237 264 23 18 337 333 336 332 326 323 328 333 336 339 339 346 343 339 338 338
236 239 238 238 244 249 240 222 219 231 235 237 238 241 246 249 248 248 222 214 213 203 145 96 42 349 348 338 326 318 323 331 334 337 339 338 341 345 340 340 338 335 339
231 233 238 243 247 248 236 219 215 222 231 234 235 235 233 222 212 203 193 177 159 129 50 26 352 337 326 312 316 318 315 324 323 332 340 343 341 340 336 333 333 330 328
230 235 241 243 246 250 256 245 231 228 230 231 229 223 219 208 203 200 191 175 166 86 351 332 326 313 304 301 301 304 316 321 331 344 346 343 341 338 332 327 328 323 325
225 229 234 237 238 239 239 237 234 232 229 225 221 219 212 201 191 181 184 172 10 322 309 298 286 296 290 293 301 305 324 348 340 342 348 343 338 333 328 327 329 328 328
222 225 231 235 238 238 238 238 234 228 229 225 220 213 203 186 180 177 168 308 309 306 294 290 290 286 283 291 311 327 329 332 339 345 343 340 338 338 335 333 330 330 332
228 233 238 245 247 245 244 243 241 237 233 230 224 215 201 194 183 199 270 289 284 281 283 275 268 266 294 302 314 322 336 340 341 342 340 339 339 339 340 341 338 334 332
239 242 245 248 250 248 243 241 238 237 235 231 224 213 209 202 216 250 286 297 287 267 262 253 258 278 287 297 312 328 333 340 339 335 336 341 345 347 347 348 344 344 338
250 250 251 250 248 247 245 243 237 236 233 230 223 221 218 230 250 275 284 292 262 253 249 247 257 271 284 305 325 331 335 333 332 335 341 347 350 348 344 345 347 345 347
259 257 254 254 254 251 247 244 239 235 232 226 228 227 231 248 273 279 270 255 252 256 250 250 258 271 289 315 325 325 325 330 335 340 343 346 345 344 345 344 344 346 347
262 258 257 255 253 251 248 245 242 234 232 236 236 236 245 271 276 268 257 257 262 254 250 250 254 264 284 299 307 317 326 330 333 336 339 342 342 344 346 343 343 346 352
267 262 260 258 255 253 248 242 236 232 231 233 237 239 261 268 266 262 260 268 261 254 249 247 250 254 262 276 296 310 317 327 334 337 339 341 342 342 343 342 343 347 350
270 266 262 259 256 254 250 245 242 240 239 240 240 249 264 266 258 260 266 265 259 254 246 244 244 247 255 270 290 309 317 325 332 338 338 337 339 339 338 341 343 347 353
278 272 264 261 259 258 255 252 249 244 244 246 247 259 266 256 254 263 262 262 253 248 241 240 239 245 256 271 292 304 310 320 327 329 328 328 332 335 335 338 341 344 348
278 274 271 265 261 258 255 253 250 247 246 248 255 257 254 250 259 258 262 259 251 247 243 242 242 247 254 265 279 291 302 309 313 316 317 319 321 324 324 327 330 334 337
281 278 271 264 259 258 256 252 249 247 247 252 255 257 251 250 252 253 265 262 251 245 243 242 243 246 251 258 268 279 290 297 302 306 310 312 312 315 315 317 321 323 327
282 280 278 270 264 261 258 255 254 251 251 256 259 259 255 250 254 258 262 260 255 249 249 246 248 249 251 255 261 269 277 284 290 296 303 305 306 307 307 310 313 315 317
279 278 276 275 271 266 263 262 259 257 256 259 261 261 254 246 247 253 257 255 253 251 250 250 250 252 253 255 259 264 269 276 283 292 298 301 303 304 303 305 306 308 311
281 278 275 272 271 270 265 262 260 260 259 261 263 261 250 246 248 253 255 253 251 251 252 251 250 252 255 258 260 264 269 273 279 288 293 298 300 300 300 303 303 303 305
285 281 278 276 272 269 267 266 265 263 263 264 264 262 254 248 248 252 254 253 252 251 254 252 251 252 254 257 260 264 268 271 279 286 291 295 297 298 299 300 300 299 301
287 284 281 279 278 276 274 273 271 268 268 268 267 263 256 253 251 248 247 251 249 254 254 253 251 252 252 254 258 262 266 272 278 284 289 293 295 296 296 296 295 294 296
289 284 281 280 278 276 275 275 274 273 272 272 270 267 263 259 257 254 248 248 250 254 253 251 252 253 253 254 257 260 265 269 276 281 284 288 291 293 293 293 291 291 292
Wind_Speed_850mb
15 16 18 21 22 23 24 24 26 29 27 22 25 33 38 40 34 35 38 41 40 37 42 36 36 36 32 25 25 27 32 29 31 33 35 39 40 44 42 44 48 52 54
13 14 15 16 17 19 19 16 14 9 9 15 21 28 33 35 35 37 33 24 28 22 32 34 28 24 25 26 23 20 21 24 30 36 42 46 47 49 50 51 50 49 52
9 11 11 11 12 12 9 7 7 9 13 16 21 26 29 30 37 31 24 28 29 27 25 22 20 20 18 16 15 15 19 25 30 35 41 45 47 50 55 59 60 61 58
10 11 10 8 8 10 10 11 12 14 17 20 20 21 24 23 19 22 28 28 24 21 19 16 12 8 6 8 12 18 23 26 31 36 40 44 48 52 57 64 71 71 73
15 12 11 12 12 12 12 14 15 13 14 15 17 18 22 24 23 22 21 19 17 13 11 7 2 3 7 14 18 20 23 30 35 36 38 43 49 57 65 69 70 73 77
18 17 16 15 14 13 13 11 11 11 14 16 18 19 21 21 22 18 11 10 9 5 3 4 4 10 14 18 21 26 28 31 34 37 40 45 50 54 58 63 68 76 75
21 19 16 16 16 13 12 12 14 16 17 18 19 21 22 19 18 15 12 9 8 6 3 6 11 22 30 27 29 30 28 28 29 29 36 41 48 49 57 61 64 65 70
22 19 17 16 17 16 14 13 15 19 23 23 21 19 17 15 13 12 13 12 5 2 8 18 23 25 25 23 21 18 18 17 20 29 34 37 41 46 49 54 62 68 70
20 17 17 18 17 17 17 16 17 19 21 22 21 18 15 15 16 15 11 8 1 20 19 24 24 41 24 18 17 16 15 24 29 32 34 37 38 41 47 55 59 67 76
16 17 18 17 16 15 15 16 19 21 23 23 22 23 21 20 19 15 9 15 22 22 23 28 22 20 17 15 18 23 24 28 34 37 38 38 40 42 44 48 53 59 62
13 14 13 12 14 15 17 20 23 25 27 26 25 24 25 22 22 15 14 21 24 25 25 20 19 16 15 20 22 24 29 35 36 39 40 41 41 42 42 42 43 48 53
11 12 13 15 18 19 22 24 27 29 30 30 28 29 28 29 24 21 28 35 34 24 23 22 18 16 19 19 21 27 31 33 34 38 39 41 45 47 46 43 41 39 39
11 14 17 20 22 24 26 28 30 34 34 33 33 33 35 31 28 29 34 39 26 23 23 22 20 20 22 20 23 28 32 32 34 36 39 41 44 45 47 47 45 44 38
14 18 21 24 25 28 29 32 34 37 40 39 41 41 38 33 36 39 39 31 27 27 27 24 22 20 17 18 22 25 28 31 35 37 39 40 40 40 45 50 53 53 51
22 24 27 30 31 32 33 35 38 40 40 40 41 41 40 41 40 39 37 28 29 30 30 27 23 18 13 15 18 21 26 28 29 32 34 36 39 40 42 46 48 50 51
28 30 32 32 34 36 38 42 46 49 51 51 50 47 44 45 48 47 38 34 36 37 36 30 25 18 16 16 17 19 21 24 27 30 33 36 38 41 42 42 44 46 48
31 32 35 38 40 42 46 49 52 54 57 57 55 50 49 50 48 47 42 42 41 39 35 31 27 22 19 18 16 18 22 24 26 29 32 34 35 37 39 40 42 43 43
35 37 42 44 45 47 51 54 55 60 63 58 57 55 55 53 49 51 45 46 44 42 37 34 30 26 22 18 18 19 22 24 24 26 28 31 32 34 35 36 39 43 45
36 40 43 46 49 52 55 58 62 66 65 59 60 60 54 53 51 50 47 46 41 43 41 37 33 29 26 22 20 21 22 24 23 24 26 28 31 32 35 37 38 40 43
42 44 46 50 53 59 63 66 68 70 70 69 74 69 65 55 56 54 53 43 47 47 45 42 39 35 31 26 24 23 23 25 27 26 27 30 34 37 39 39 39 42 42
49 50 52 54 59 64 66 69 72 75 77 81 81 72 73 62 63 61 61 56 52 49 49 46 45 42 37 32 29 25 25 27 30 31 30 32 36 37 39 39 39 40 43
52 52 54 58 61 67 70 73 78 80 82 86 83 79 74 73 73 71 68 64 59 55 52 52 51 48 44 38 34 30 29 29 33 35 34 35 36 38 39 37 38 40 41
53 57 58 60 63 68 73 78 81 84 86 89 87 85 82 84 76 70 66 61 59 58 59 59 57 53 47 43 40 36 34 32 35 37 37 37 38 38 40 39 40 41 41
53 56 61 64 66 70 74 79 82 85 86 89 88 88 85 83 76 67 62 61 63 61 63 62 60 54 50 49 46 42 39 36 37 39 40 39 40 40 41 40 40 41 42
54 57 60 63 67 71 74 77 80 84 86 87 88 89 88 86 80 73 69 68 66 67 68 66 61 58 55 51 48 46 43 40 39 41 43 43 43 42 41 41 40 41 41
55 58 61 62 65 68 72 75 78 80 84 85 84 86 87 86 80 76 70 69 69 67 68 64 62 61 57 53 50 48 45 43 43 44 45 45 45 44 43 41 41 42 41
Wind_Direction_850mb
224 232 239 247 253 256 258 255 250 246 244 242 238 247 256 257 254 271 270 275 264 260 272 273 268 273 274 255 268 274 282 285 290 305 314 317 319 315 316 317 320 321 323
235 242 250 261 269 275 272 270 268 269 251 248 250 257 253 260 260 268 266 268 262 257 263 263 253 248 257 269 275 278 288 303 315 320 324 324 330 329 333 329 331 329 330
233 242 243 243 252 260 248 242 249 253 259 257 258 262 263 267 263 257 254 263 264 265 258 247 262 266 269 277 281 296 317 321 321 324 325 330 334 335 334 333 335 334 336
243 245 252 257 262 262 246 231 231 245 243 259 255 256 262 244 218 260 267 267 250 246 252 256 261 266 292 335 340 330 324 324 328 330 332 333 337 337 335 337 341 342 339
244 249 246 243 243 251 243 225 231 233 239 242 254 253 250 266 271 260 256 252 246 236 231 237 264 23 18 337 333 336 332 326 323 328 333 336 339 339 346 343 339 338 338
236 239 238 238 244 249 240 222 219 231 235 237 238 241 246 249 248 248 222 214 213 203 145 96 42 349 348 338 326 318 323 331 334 337 339 338 341 345 340 340 338 335 339
231 233 238 243 247 248 236 219 215 222 231 234 235 235 233 222 212 203 193 177 159 129 50 26 352 337 326 312 316 318 315 324 323 332 340 343 341 340 336 333 333 330 328
230 235 241 243 246 250 256 245 231 228 230 231 229 223 219 208 203 200 191 175 166 86 351 332 326 313 304 301 301 304 316 321 331 344 346 343 341 338 332 327 328 323 325
225 229 234 237 238 239 239 237 234 232 229 225 221 219 212 201 191 181 184 172 10 322 309 298 286 296 290 293 301 305 324 348 340 342 348 343 338 333 328 327 329 328 328
222 225 231 235 238 238 238 238 234 228 229 225 220 213 203 186 180 177 168 308 309 306 294 290 290 286 283 291 311 327 329 332 339 345 343 340 338 338 335 333 330 330 332
228 233 238 245 247 245 244 243 241 237 233 230 224 215 201 194 183 199 270 289 284 281 283 275 268 266 294 302 314 322 336 340 341 342 340 339 339 339 340 341 338 334 332
239 242 245 248 250 248 243 241 238 237 235 231 224 213 209 202 216 250 286 297 287 267 262 253 258 278 287 297 312 328 333 340 339 335 336 341 345 347 347 348 344 344 338
250 250 251 250 248 247 245 243 237 236 233 230 223 221 218 230 250 275 284 292 262 253 249 247 257 271 284 305 325 331 335 333 332 335 341 347 350 348 344 345 347 345 347
259 257 254 254 254 251 247 244 239 235 232 226 228 227 231 248 273 279 270 255 252 256 250 250 258 271 289 315 325 325 325 330 335 340 343 346 345 344 345 344 344 346 347
262 258 257 255 253 251 248 245 242 234 232 236 236 236 245 271 276 268 257 257 262 254 250 250 254 264 284 299 307 317 326 330 333 336 339 342 342 344 346 343 343 346 352
267 262 260 258 255 253 248 242 236 232 231 233 237 239 261 268 266 262 260 268 261 254 249 247 250 254 262 276 296 310 317 327 334 337 339 341 342 342 343 342 343 347 350
270 266 262 259 256 254 250 245 242 240 239 240 240 249 264 266 258 260 266 265 259 254 246 244 244 247 255 270 290 309 317 325 332 338 338 337 339 339 338 341 343 347 353
278 272 264 261 259 258 255 252 249 244 244 246 247 259 266 256 254 263 262 262 253 248 241 240 239 245 256 271 292 304 310 320 327 329 328 328 332 335 335 338 341 344 348
278 274 271 265 261 258 255 253 250 247 246 248 255 257 254 250 259 258 262 259 251 247 243 242 242 247 254 265 279 291 302 309 313 316 317 319 321 324 324 327 330 334 337
281 278 271 264 259 258 256 252 249 247 247 252 255 257 251 250 252 253 265 262 251 245 243 242 243 246 251 258 268 279 290 297 302 306 310 312 312 315 315 317 321 323 327
282 280 278 270 264 261 258 255 254 251 251 256 259 259 255 250 254 258 262 260 255 249 249 246 248 249 251 255 261 269 277 284 290 296 303 305 306 307 307 310 313 315 317
279 278 276 275 271 266 263 262 259 257 256 259 261 261 254 246 247 253 257 255 253 251 250 250 250 252 253 255 259 264 269 276 283 292 298 301 303 304 303 305 306 308 311
281 278 275 272 271 270 265 262 260 260 259 261 263 261 250 246 248 253 255 253 251 251 252 251 250 252 255 258 260 264 269 273 279 288 293 298 300 300 300 303 303 303 305
285 281 278 276 272 269 267 266 265 263 263 264 264 262 254 248 248 252 254 253 252 251 254 252 251 252 254 257 260 264 268 271 279 286 291 295 297 298 299 300 300 299 301
287 284 281 279 278 276 274 273 271 268 268 268 267 263 256 253 251 248 247 251 249 254 254 253 251 252 252 254 258 262 266 272 278 284 289 293 295 296 296 296 295 294 296
289 284 281 280 278 276 275 275 274 273 272 272 270 267 263 259 257 254 248 248 250 254 253 251 252 253 253 254 257 260 265 269 276 281 284 288 291 293 293 293 291 291 292